KCVG Airport Diagram

We have created a template for each of the higher traffic airports in the vZID airspace. They include KCMH, KCRW, KCVG, KDAY, KIND, KLEX and KSDF. You wil find usefull information including the airport diagram, weather, and specific airport procedures.

KCVG Weather

[Source: ADDS]
METAR
KCVG 171052Z 24003KT 5SM BR CLR 00/M01 A3010 RMK AO2 SLP195 I1001 T00001011 $ =
KCVG 171138Z 1712/1818 24003KT 5SM BR SKC FM171300 27008KT P6SM SKC FM171600 30010KT P6SM FEW045 FM180000 32006KT P6SM SKC FM180900 04004KT 5SM BR SKC FM181400 07005KT P6SM SKC
TAF
KCVG 171138Z 1712/1818 24003KT 5SM BR SKC FM171300 27008KT P6SM SKC FM171600 30010KT P6SM FEW045 FM180000 32006KT P6SM SKC FM180900 04004KT 5SM BR SKC FM181400 07005KT P6SM SKC =

KCVG Operations

Calm Wind Configuration is Landing runways 36C and 36R, departing runway 27.

You can expect  this configuration up to and including a 10 knot tailwind.

The Center runway is the old 18R/36L in the default scenery. Additionally, runway 9/27 was lengthened to 12,000 feet when the west runway (18R/36L) was added.

Where parallel taxiways exist, inner taxiway is used by inbound traffic and outer taxiway is used by outbound traffic.

FDX & UPS use the ramp area at Terminal 1.

New Scenery is available at FlightSim.com.

On initial contact, arriving aircraft should notify the the controller which scenery they have.

 

JSN Epic template designed by JoomlaShine.com